Wind_Speed
9 8 11 12 14 16 18 19 21 20 20 21 23 22 22 20 19 17 14 13 14 14 14 13 13 14 14 14 15 16 17 17 21 15 23 13 14 18 24 38 26 32 27
8 7 13 15 16 16 18 18 20 22 23 23 23 23 21 18 17 16 14 13 14 14 14 14 13 13 13 13 14 16 17 15 20 16 15 4 12 10 27 23 29 20 28
10 8 9 15 16 17 18 18 20 22 23 25 24 23 21 18 15 13 12 12 13 14 14 13 12 12 11 12 13 15 16 16 20 19 9 4 3 15 6 26 19 30 30
11 8 9 15 16 17 18 19 20 20 20 19 21 19 18 17 13 12 10 9 11 12 13 11 11 10 9 11 13 14 15 15 17 19 12 18 22 7 9 5 32 21 29
12 10 9 18 16 16 18 19 20 21 20 20 20 20 19 15 13 11 9 7 7 8 12 10 10 10 11 12 13 15 16 16 17 18 20 23 20 23 9 14 11 24 24
12 10 19 19 17 16 18 19 20 20 20 20 19 18 17 14 12 10 9 9 7 7 11 10 9 9 12 13 14 16 18 18 18 20 21 22 14 15 14 12 15 18 26
12 12 10 13 17 16 17 18 20 20 19 19 17 16 15 13 12 10 9 7 6 8 11 11 11 11 13 14 16 17 20 19 22 21 24 25 24 24 23 21 15 14 28
11 11 9 16 19 18 17 19 19 19 17 17 15 14 13 11 11 9 8 8 7 9 10 11 12 13 14 15 17 19 20 22 22 24 26 27 28 26 25 24 17 15 16
13 12 11 19 21 18 18 19 19 18 16 15 14 12 11 10 9 7 7 7 7 8 10 11 12 13 15 16 18 20 23 23 26 28 26 28 27 28 28 26 25 15 16
14 11 10 19 21 19 19 18 17 17 16 14 12 11 10 9 7 6 8 8 8 9 11 11 14 15 17 18 20 22 24 26 27 25 28 31 28 28 28 27 24 23 20
14 12 9 21 22 20 19 18 18 17 15 13 12 9 8 8 6 6 7 8 8 9 10 12 15 17 19 21 22 25 25 26 27 27 29 30 30 29 26 27 25 24 23
12 11 10 20 23 20 18 18 17 16 14 12 10 9 8 5 5 5 6 7 8 10 12 13 16 18 21 23 25 26 27 26 26 27 29 30 29 30 29 25 25 23 27
11 10 10 11 18 20 19 18 17 16 13 11 10 9 6 4 4 5 6 8 10 12 14 15 18 21 24 25 25 28 24 27 27 27 30 31 31 31 27 27 27 30 30
12 10 10 7 19 21 20 18 17 16 13 11 10 8 4 3 3 5 7 9 11 14 16 18 20 23 25 26 28 23 28 27 25 28 30 31 31 29 30 31 30 26 27
12 11 10 9 17 21 20 18 17 15 12 11 9 5 4 2 4 6 8 11 13 15 18 20 23 25 26 23 25 29 27 27 26 30 31 30 30 32 33 32 30 31 32
12 10 9 9 14 21 21 19 18 15 12 10 7 5 2 3 4 7 9 12 15 18 21 23 24 26 26 24 27 27 27 26 27 30 30 32 30 28 33 34 39 37 34
10 9 9 9 18 23 23 20 18 15 12 9 6 3 2 3 5 8 11 14 17 20 22 24 25 26 26 26 27 28 27 25 27 29 30 32 28 33 34 37 35 30 28
8 8 8 15 21 23 22 20 18 14 11 8 5 2 1 4 7 10 12 16 19 21 24 26 26 26 28 27 27 27 26 27 27 28 30 30 34 34 37 36 32 29 32
7 11 20 24 24 22 23 21 16 13 10 7 4 1 3 5 8 11 15 19 21 24 25 25 27 28 30 26 27 26 26 25 28 27 27 30 35 35 39 39 32 35 30
17 18 24 24 23 21 20 19 16 12 9 5 3 1 4 6 9 13 17 20 22 23 24 27 27 27 28 27 25 26 27 26 27 27 27 29 34 39 40 39 37 26 32
19 22 22 20 21 19 18 17 14 10 7 4 2 2 4 8 10 15 18 20 21 23 25 26 27 27 24 26 26 29 29 26 29 27 29 30 36 38 41 39 28 35 40
15 19 20 20 18 16 16 15 12 8 5 2 0 3 7 10 13 15 19 19 21 23 25 25 24 22 24 24 28 28 29 31 30 31 31 35 38 41 37 33 37 36 35
15 19 20 19 15 12 13 14 10 7 4 1 2 6 10 13 13 16 17 20 21 22 21 20 21 23 24 26 26 28 30 32 34 33 37 36 36 33 32 32 35 33 29
12 19 19 17 15 12 12 11 9 6 3 3 6 9 11 12 15 18 18 21 23 22 20 19 20 22 24 25 27 27 29 30 31 33 28 30 31 30 30 30 29 28 28
14 16 17 17 16 12 11 9 7 4 4 5 7 9 10 15 17 19 19 21 22 21 24 23 24 23 24 26 33 34 33 35 35 37 26 28 27 27 28 28 29 29 29
14 12 13 19 15 13 11 7 4 3 4 6 7 10 12 17 19 21 24 20 19 22 22 23 24 26 26 30 32 33 36 36 34 28 25 25 25 26 27 28 29 30 29
Wind_Direction
124 141 131 121 108 115 118 117 121 126 131 130 114 106 102 101 97 91 88 81 75 58 57 53 32 23 29 16 12 5 2 358 355 341 338 333 335 326 339 329 333 321 328
134 150 132 117 108 103 104 107 107 113 120 122 120 120 117 111 104 98 82 69 65 58 45 38 32 24 24 13 16 10 4 350 359 354 330 334 317 337 320 313 311 319 325
145 153 122 113 104 99 102 109 112 116 119 121 121 118 113 109 104 86 74 64 52 47 40 31 29 23 23 14 13 5 4 352 351 355 346 341 308 319 313 316 312 323 316
140 149 134 119 111 112 115 114 116 119 126 131 133 129 122 111 106 99 92 54 34 31 37 34 31 23 18 9 6 358 357 352 339 338 335 323 311 314 315 299 310 311 311
143 142 129 122 122 117 115 115 114 110 111 114 120 121 116 114 112 101 91 79 55 22 24 34 25 14 5 359 356 351 347 341 333 327 326 318 311 310 303 307 309 306 307
136 127 124 125 122 123 121 119 113 108 113 117 119 119 119 116 106 98 85 72 55 26 7 18 17 4 356 353 346 343 338 335 324 319 318 311 309 308 305 301 307 304 308
139 134 135 135 140 134 131 126 120 111 112 113 115 115 111 109 103 87 71 57 39 15 4 2 4 357 347 343 340 335 333 328 319 316 315 308 306 302 297 303 302 302 307
142 146 147 146 148 147 145 135 126 119 118 115 114 114 110 103 89 72 64 47 19 7 352 352 351 346 342 339 335 329 324 318 313 312 310 306 303 303 302 301 304 307 303
150 154 148 147 152 153 149 141 133 125 122 119 117 108 104 95 83 69 45 29 2 357 342 347 340 340 338 334 330 324 320 318 313 309 307 308 304 302 300 302 301 297 307
153 156 149 148 155 156 147 143 140 132 129 127 122 110 100 88 79 50 33 9 359 345 344 338 336 336 333 330 327 323 318 315 312 310 311 308 304 304 303 301 304 301 296
160 155 149 149 153 147 149 145 141 139 133 129 125 118 98 82 64 38 15 359 352 338 336 332 331 330 327 325 324 321 317 313 310 316 313 308 309 306 307 306 301 299 295
154 150 144 142 146 153 155 149 149 143 139 134 129 111 98 87 55 25 2 347 338 331 328 327 323 323 323 322 320 316 314 312 321 319 313 310 311 308 306 302 302 300 297
145 147 140 144 152 162 159 157 154 144 144 138 128 117 108 74 43 359 344 337 330 326 326 322 322 321 320 318 315 313 312 320 319 315 312 310 309 305 303 304 301 296 292
154 155 151 149 161 165 163 157 148 147 145 140 131 126 102 62 8 346 339 330 325 322 321 321 319 316 315 312 312 311 318 316 315 313 310 307 303 301 307 304 298 298 300
162 160 151 153 160 160 157 153 148 149 149 140 137 125 93 20 360 338 326 323 320 320 320 319 316 315 315 315 313 315 318 320 319 314 308 305 306 307 306 307 310 309 304
160 148 149 153 153 156 152 148 147 147 150 144 135 112 80 11 339 323 322 321 323 324 322 319 318 318 315 312 313 315 318 319 318 311 310 308 310 309 312 309 305 303 312
151 148 152 149 149 152 150 145 147 149 147 140 130 113 41 348 323 324 326 327 326 323 320 318 318 316 314 315 316 318 317 317 312 308 312 312 314 313 310 304 306 301 314
128 131 131 129 138 140 142 144 143 145 144 139 131 108 350 323 326 328 329 326 325 322 321 319 316 314 317 320 319 318 317 312 309 307 308 308 312 311 309 311 313 311 312
101 109 122 125 127 130 136 134 137 142 143 136 135 118 327 320 329 326 326 329 326 323 320 317 316 320 321 324 321 319 317 311 306 307 309 312 312 312 316 318 314 313 312
85 96 112 121 124 129 136 139 142 144 139 146 146 24 310 319 324 327 329 325 321 316 315 317 320 323 320 323 321 322 319 312 314 315 315 314 315 316 318 319 316 318 314
101 113 120 124 131 139 145 139 137 136 150 139 92 310 313 325 334 326 322 321 318 316 318 323 325 324 326 325 324 324 320 321 320 320 318 316 316 316 320 320 327 315 317
111 120 112 119 132 143 143 133 134 145 132 127 267 318 336 337 330 321 319 320 320 320 322 323 323 326 328 327 324 322 323 321 323 318 317 313 318 323 324 326 319 321 326
120 125 123 126 131 134 143 136 140 140 149 153 353 347 340 334 323 322 325 323 325 322 320 319 320 321 323 321 322 321 320 324 321 319 313 317 322 326 324 321 325 324 318
132 136 137 137 132 137 130 142 146 147 129 44 4 348 334 324 326 328 327 324 322 320 316 314 312 313 315 316 316 316 321 322 323 318 322 326 327 324 323 322 321 319 316
144 149 151 150 144 146 142 145 144 131 72 18 356 336 327 330 332 329 324 321 319 320 319 321 317 314 313 315 318 323 325 326 325 329 332 330 327 325 325 323 320 319 319
147 149 143 142 146 148 144 144 130 81 40 4 333 328 333 334 331 323 320 319 318 321 319 316 316 316 314 316 321 324 325 327 332 337 329 325 325 323 322 320 318 318 319
Height
742 745 747 748 746 748 749 750 752 756 758 762 764 768 772 775 778 781 782 782 782 781 781 781 781 780 779 778 777 776 774 772 769 765 761 755 754 752 748 746 743 740 738
744 746 747 748 749 750 750 751 754 756 759 761 765 770 774 778 780 782 783 783 782 781 781 782 781 780 779 778 777 776 774 773 770 767 762 757 753 749 750 747 743 739 736
743 746 748 749 751 752 753 755 757 758 761 764 767 772 776 779 782 783 784 784 783 783 782 782 781 781 780 779 778 777 775 772 770 769 769 765 759 750 742 742 738 735 734
737 745 748 750 753 755 757 759 761 763 765 767 769 772 775 779 782 783 784 783 783 783 783 782 782 781 780 779 778 777 775 773 771 769 769 768 764 757 740 736 737 735 731
734 743 747 751 755 758 759 762 763 764 766 767 770 773 776 779 782 783 783 784 784 783 783 782 781 780 779 779 777 776 774 773 772 770 766 764 760 758 752 733 731 731 729
734 741 747 752 757 760 762 764 765 766 768 769 772 775 777 779 781 783 783 784 784 783 782 781 781 780 779 778 777 775 773 772 770 768 765 762 759 755 750 740 729 724 721
733 741 747 753 758 760 764 766 767 769 770 771 774 776 778 779 781 782 783 783 783 783 781 781 780 779 778 777 776 774 772 770 768 765 762 759 756 753 747 741 729 720 716
733 740 746 752 757 760 764 767 768 770 771 773 776 777 779 780 781 782 783 783 783 782 781 780 779 778 777 776 774 772 771 768 765 762 759 755 752 748 744 739 733 717 710
731 738 744 750 755 760 764 766 768 770 772 774 776 778 778 780 781 782 782 783 782 782 781 780 778 777 776 774 773 771 768 765 762 758 755 751 746 743 739 735 733 726 709
729 736 742 748 754 759 763 766 769 770 772 774 777 778 779 781 782 782 782 783 782 782 780 779 777 775 774 772 770 767 764 761 758 754 750 746 742 737 733 730 727 724 720
725 732 739 746 752 758 762 765 768 770 772 775 777 778 779 781 782 782 782 782 782 781 779 777 775 773 771 769 766 764 760 757 754 750 747 742 737 732 728 725 721 718 715
723 730 737 744 751 757 761 764 768 770 772 775 776 778 780 781 782 782 782 782 781 780 778 776 773 771 769 766 763 760 758 754 750 746 743 737 733 728 724 720 716 712 708
722 729 737 744 750 755 760 763 767 769 772 774 776 778 780 781 782 782 781 780 779 778 775 773 771 768 766 763 761 757 754 751 747 744 739 733 728 722 718 714 710 705 699
719 727 735 741 748 753 757 762 765 768 772 774 776 778 779 781 781 780 780 779 778 776 774 771 769 766 763 761 757 753 750 746 744 740 735 730 725 719 713 708 702 697 692
718 725 733 739 745 750 755 760 764 768 771 774 775 777 779 779 779 779 779 778 776 774 772 769 767 764 761 758 754 750 746 742 738 735 730 724 720 715 710 704 697 691 685
715 722 730 736 742 747 753 758 763 767 771 773 775 777 778 778 779 778 777 776 775 772 770 767 765 761 759 756 752 748 743 739 735 729 724 720 715 709 704 699 694 687 679
715 721 728 734 740 746 751 757 763 767 771 773 775 776 777 777 777 777 776 775 772 770 767 764 761 758 755 751 747 743 739 734 731 726 720 714 710 705 698 690 685 679 675
713 720 727 733 740 746 752 757 763 767 771 773 774 775 776 776 777 775 774 772 769 767 764 761 758 754 750 747 742 738 734 730 726 722 717 711 704 699 692 684 676 672 666
717 722 728 735 741 747 752 758 764 768 770 773 774 775 776 776 774 773 771 768 767 765 761 758 754 750 745 742 738 734 729 724 720 716 712 707 699 693 685 678 670 663 657
723 727 733 738 744 750 754 760 764 768 770 772 773 774 774 774 772 770 769 768 765 762 758 754 751 747 742 739 735 731 727 720 715 711 706 702 695 687 680 672 664 657 650
730 734 738 743 747 752 757 760 764 768 770 772 772 773 773 771 770 769 767 765 762 759 755 751 747 744 740 736 733 730 724 719 712 706 699 694 689 681 674 667 661 654 645
735 738 741 746 750 754 757 761 765 768 770 771 771 771 770 769 768 767 765 762 759 755 751 748 744 741 738 735 731 726 722 716 711 703 695 689 681 674 668 663 657 649 642
737 740 743 748 753 756 758 762 765 767 769 770 770 769 768 767 767 765 762 760 757 753 750 746 742 738 736 732 728 723 718 712 705 700 691 683 677 671 665 660 653 646 640
739 741 745 749 753 757 760 762 765 766 768 768 767 767 767 767 765 762 760 757 754 751 747 744 740 736 732 728 723 717 712 706 700 692 684 679 674 669 663 656 649 643 637
740 743 746 750 754 758 761 763 764 765 766 766 766 766 766 764 761 759 758 755 753 750 746 742 738 733 728 724 720 714 708 702 696 687 682 676 671 664 658 652 645 639 632
741 744 747 750 754 758 760 762 763 764 764 765 766 766 763 761 759 757 753 753 750 748 745 741 737 732 728 721 716 711 705 698 692 686 682 676 670 663 656 649 641 635 628